Flag for U.S.A. Weather past 2 weeks in Kalamazoo, Michigan, U.S.A.

Now
66 °F

Clear.


Feels Like: 66 °F
Forecast: 62 / 81 °F
Wind: 8 mph from West

Location: Kalamazoo / Battle Creek International Airport

Current Time: Aug 1, 2015 at 2:45:34 AM

Latest Report: Aug 1, 2015 at 1:53 AM


Visibility: 10 mi

Pressure: 29.93 "Hg

Humidity: 70%

Dew point: 56 °F

Location of KalamazooLocation

Historic Weather in Kalamazoo — Graph

°F

Kalamazoo temperature yesterday

Maximum temperature yesterday: 85 °F (at 2:53 PM)
Minimum temperature yesterday: 63 °F (at 11:53 PM)
Average temperature yesterday: 74 °F

Past Weeks' High & Low Weather Summary

 TemperatureHumidityPressure
High89 °F (Jul 17, 5:53 PM)94% (Jul 27, 2:53 AM)30.05 "Hg (Jul 27, 2:53 AM)
Low57 °F (Jul 22, 6:53 AM)31% (Jul 31, 2:53 PM)29.73 "Hg (Jul 20, 11:53 PM)
Average75 °F67%29.93 "Hg
* Reported Jul 17 12:53 AM — Aug 1 12:53 AM, Kalamazoo, Weather by CustomWeather, © 2015

Note: Actual official high and low records may vary slightly from our data, if they occured in-between our weather recording intervals... More about our weather records

Advertising

Kalamazoo weather history for previous 24 hours

 ConditionsComfort  
Time TempWeatherWind HumidityBarometerVisibility
12:53 AM
Sat, Aug 1
65 °FClear.6 mph70%29.93 "Hg10 mi
11:53 PM
Fri, Jul 31
63 °FClear.6 mph73%29.93 "Hg10 mi
10:53 PM65 °FClear.5 mph66%29.93 "Hg10 mi
9:53 PM68 °FSunny.3 mph59%29.93 "Hg10 mi
8:53 PM74 °FSunny.7 mph43%29.90 "Hg10 mi
7:53 PM78 °FSunny.15 mph37%29.90 "Hg10 mi
6:53 PM80 °FSunny.14 mph36%29.90 "Hg10 mi
5:53 PM82 °FSunny.17 mph33%29.90 "Hg10 mi
4:53 PM84 °FScattered clouds.16 mph37%29.90 "Hg10 mi
3:53 PM85 °FPassing clouds.15 mph35%29.90 "Hg10 mi
2:53 PM85 °FPassing clouds.17 mph31%29.92 "Hg10 mi
1:53 PM83 °FPassing clouds.16 mph44%29.92 "Hg10 mi
12:53 PM83 °FScattered clouds.15 mph50%29.94 "Hg10 mi
11:53 AM83 °FPassing clouds.12 mph48%29.95 "Hg10 mi
10:53 AM80 °FPassing clouds.9 mph54%29.96 "Hg10 mi
9:53 AM78 °FSunny.10 mph58%29.97 "Hg10 mi
8:53 AM74 °FSunny.8 mph67%29.98 "Hg10 mi
7:53 AM69 °FSunny.N/A76%29.98 "Hg10 mi
6:53 AM64 °FClear.No wind84%29.98 "Hg10 mi
5:53 AM64 °FClear.No wind81%29.98 "Hg10 mi
4:53 AM67 °FClear.No wind73%29.98 "Hg10 mi
3:53 AM66 °FClear.No wind75%29.98 "Hg10 mi
2:53 AM66 °FClear.7 mph75%29.98 "Hg10 mi
Weather by CustomWeather, © 2015

See weather overviewHow to use our weather pages